This demonstration page uses our WeatherBlox Daily Observations layout. Learn more.

Hourly Observations for December 22, 2018

Temp ( °F °C ) Dew Point ( °F °C ) Humidity (%) Winds ( mph kmh ) Pressure ( in mb ) Visibility ( mi km ) Precip ( " mm )
12:15 am 00:15 Clear 35 1.7 29 -1.4 80 80 NNW 8 13 29.88 1012 10 16.0934 0 0
12:35 am 00:35 Clear 34 0.9 29 -1.6 84 84 NNW 7 11 29.91 1013 10 16.0934 0 0
12:55 am 00:55 Clear 32 0.1 29 -1.7 88 88 NNW 8 13 29.91 1013 10 16.0934 0 0
1:15 am 01:15 Clear 32 0 29 -1.8 88 88 NNW 7 11 29.91 1013 10 16.0934 0 0
1:35 am 01:35 Clear 32 -0.1 28 -2.2 86 86 NW 7 11 29.91 1013 10 16.0934 0 0
1:55 am 01:55 Clear 32 0 29 -1.5 90 90 NNW 6 9 29.91 1013 10 16.0934 0 0
2:15 am 02:15 Clear 32 0.1 29 -1.7 88 88 NNW 7 11 29.91 1013 10 16.0934 0 0
2:35 am 02:35 Clear 32 0 29 -1.8 88 88 NW 7 11 29.91 1013 10 16.0934 0 0
2:55 am 02:55 Clear 29 -1.5 27 -2.9 90 90 NW 7 11 29.94 1014 10 16.0934 0 0
3:15 am 03:15 Clear 29 -1.6 28 -2.5 94 94 NW 7 11 29.94 1014 10 16.0934 0 0
3:35 am 03:35 Clear 29 -1.9 27 -2.8 94 94 NW 6 9 29.97 1015 10 16.0934 0 0
3:55 am 03:55 Clear 28 -2.4 27 -3 96 96 NW 8 13 29.97 1015 10 16.0934 0 0
4:15 am 04:15 Clear 28 -2.1 27 -2.9 94 94 NW 6 9 29.97 1015 10 16.0934 0 0
4:35 am 04:35 Clear 28 -2 27 -2.7 95 95 WNW 3 6 29.97 1015 10 16.0934 0 0
4:55 am 04:55 Mostly Cloudy 29 -1.6 28 -2.5 94 94 NW 6 9 29.94 1014 10 16.0934 0 0
5:15 am 05:15 Mostly Cloudy 30 -1.1 28 -2 94 94 WNW 7 11 29.97 1015 10 16.0934 0 0
5:35 am 05:35 Partly Cloudy 32 -0.2 30 -1.1 94 94 WNW 7 11 29.97 1015 10 16.0934 0 0
5:55 am 05:55 Clear 32 0.1 31 -0.6 95 95 NW 7 11 29.97 1015 10 16.0934 0 0
6:15 am 06:15 Clear 33 0.7 31 -0.6 91 91 NW 8 13 30 1016 10 16.0934 0 0
6:35 am 06:35 Clear 33 0.6 31 -0.5 92 92 NW 7 11 30 1016 10 16.0934 0 0
6:55 am 06:55 Partly Cloudy 33 0.7 31 -0.5 92 92 NW 8 13 30 1016 10 16.0934 0 0
7:15 am 07:15 Clear 34 1 31 -0.7 89 89 NNW 9 15 30 1016 10 16.0934 0 0
7:35 am 07:35 Clear 33 0.8 30 -0.9 89 89 NNW 10 17 30.03 1017 10 16.0934 0 0
7:55 am 07:55 Clear 33 0.7 30 -1.1 88 88 NW 9 15 30.03 1017 10 16.0934 0 0
8:15 am 08:15 Sunny 33 0.6 30 -1.2 88 88 NNW 7 11 30.03 1017 10 16.0934 0 0
8:35 am 08:35 Sunny 33 0.8 30 -1.3 86 86 NW 8 13 30.06 1018 10 16.0934 0 0
8:55 am 08:55 Sunny 34 1.1 30 -1.2 85 85 NW 8 13 30.06 1018 10 16.0934 0 0
9:15 am 09:15 Partly Cloudy 34 1.2 30 -1.2 84 84 NNW 8 13 30.06 1018 10 16.0934 0 0
9:35 am 09:35 Mostly Cloudy 35 1.5 29 -1.5 81 81 NW 7 11 30.09 1019 10 16.0934 0 0
9:55 am 09:55 Cloudy 35 1.7 29 -1.5 80 80 NNW 8 13 30.09 1019 10 16.0934 0 0
10:15 am 10:15 Mostly Cloudy 36 2.1 29 -1.5 77 77 NW 10 17 30.09 1019 10 16.0934 0 0
10:35 am 10:35 Mostly Cloudy 38 3.4 29 -1.5 71 71 NNW 10 17 30.06 1018 10 16.0934 0 0
10:55 am 10:55 Cloudy 38 3.6 29 -1.9 68 68 NNW 16 26 30.06 1018 10 16.0934 0 0
11:15 am 11:15 Mostly Cloudy 38 3.1 28 -2.1 69 69 NNW 20 31 30.09 1019 10 16.0934 0 0
11:35 am 11:35 Cloudy 38 3.4 28 -2.1 68 68 NNW 20 31 30.09 1019 10 16.0934 0 0
11:55 am 11:55 Cloudy 38 3.6 28 -2.3 66 66 NW 17 28 30.09 1019 10 16.0934 0 0
12:15 pm 12:15 Cloudy 38 3.6 28 -2 67 67 NNW 17 28 30.09 1019 10 16.0934 0 0
12:35 pm 12:35 Cloudy 38 3.1 28 -2 70 70 NW 16 26 30.09 1019 10 16.0934 0 0
12:55 pm 12:55 Cloudy 38 3.1 29 -1.6 72 72 NNW 13 20 30.09 1019 10 16.0934 0 0
1:15 pm 13:15 Cloudy 39 3.8 29 -1.5 69 69 N 13 20 30.09 1019 10 16.0934 0 0
1:35 pm 13:35 Mostly Cloudy 40 4.3 26 -3.6 57 57 N 16 26 30.09 1019 10 16.0934 0 0
1:55 pm 13:55 Partly Cloudy 40 4.5 27 -3 59 59 N 13 20 30.09 1019 10 16.0934 0 0
2:15 pm 14:15 Mostly Cloudy 40 4.4 27 -2.8 60 60 N 9 15 30.09 1019 10 16.0934 0 0
2:35 pm 14:35 Cloudy 40 4.5 26 -3.2 58 58 N 10 17 30.09 1019 10 16.0934 0 0
2:55 pm 14:55 Cloudy 40 4.5 26 -3.1 58 58 NNW 8 13 30.09 1019 10 16.0934 0 0
3:15 pm 15:15 Cloudy 40 4.5 26 -3.1 58 58 NNW 7 11 30.09 1019 10 16.0934 0 0
3:35 pm 15:35 Cloudy 40 4.5 27 -2.8 59 59 N 6 9 30.09 1019 10 16.0934 0 0
3:55 pm 15:55 Cloudy 40 4.5 27 -2.7 60 60 NNW 3 6 30.12 1020 10 16.0934 0 0
4:15 pm 16:15 Cloudy 39 4 28 -2.1 65 65 W 3 6 30.12 1020 10 16.0934 0 0
4:35 pm 16:35 Cloudy 39 3.7 28 -2 67 67 SW 5 7 30.15 1021 10 16.0934 0 0
4:55 pm 16:55 Cloudy 38 3.5 29 -1.8 69 69 WNW 7 11 30.18 1022 10 16.0934 0 0
5:15 pm 17:15 Cloudy 37 3 30 -1.3 74 74 WSW 7 11 30.21 1023 10 16.0934 0 0
5:35 pm 17:35 Cloudy 36 2.2 31 -0.5 83 83 WSW 9 15 30.21 1023 10 16.0934 0 0
5:55 pm 17:55 Cloudy 35 1.6 31 -0.3 87 87 WSW 6 9 30.21 1023 10 16.0934 0 0
6:15 pm 18:15 Partly Cloudy 33 0.5 32 -0.2 95 95 W 9 15 30.24 1024 10 16.0934 0 0
6:35 pm 18:35 Clear 32 0.1 32 -0.2 98 98 W 8 13 30.24 1024 10 16.0934 0 0
6:55 pm 18:55 Clear 32 0 31 -0.5 96 96 W 8 13 30.24 1024 10 16.0934 0 0
7:15 pm 19:15 Partly Cloudy 32 -0.1 31 -0.5 97 97 W 8 13 30.24 1024 10 16.0934 0 0
7:35 pm 19:35 Mostly Cloudy 32 0 31 -0.4 97 97 W 8 13 30.24 1024 10 16.0934 0 0
7:55 pm 19:55 Partly Cloudy 32 0 31 -0.5 96 96 W 8 13 30.24 1024 10 16.0934 0 0
8:15 pm 20:15 Mostly Cloudy 32 0.1 31 -0.3 97 97 W 9 15 30.24 1024 10 16.0934 0 0
8:35 pm 20:35 Partly Cloudy 31 -0.3 31 -0.7 97 97 W 9 15 30.24 1024 10 16.0934 0 0
8:55 pm 20:55 Mostly Cloudy 32 -0.1 31 -0.6 96 96 W 10 17 30.27 1025 10 16.0934 0 0
9:15 pm 21:15 Mostly Cloudy 32 -0.2 30 -1 94 94 W 10 17 30.27 1025 10 16.0934 0 0
9:35 pm 21:35 Partly Cloudy 30 -0.9 29 -1.6 95 95 W 10 17 30.27 1025 10 16.0934 0 0
9:55 pm 21:55 Clear 31 -0.6 28 -2.2 89 89 W 8 13 30.27 1025 10 16.0934 0 0
10:15 pm 22:15 Clear 29 -1.4 27 -2.9 90 90 WNW 5 7 30.3 1026 10 16.0934 0 0
10:35 pm 22:35 Clear 28 -2 26 -3.5 90 90 WNW 5 7 30.33 1027 10 16.0934 0 0
10:55 pm 22:55 Clear 28 -2.5 25 -4 90 90 WNW 6 9 30.33 1027 10 16.0934 0 0
11:15 pm 23:15 Clear 26 -3.2 24 -4.7 90 90 WNW 9 15 30.33 1027 10 16.0934 0 0
11:35 pm 23:35 Clear 26 -3.5 24 -4.7 92 92 NW 7 11 30.36 1028 10 16.0934 0 0
11:55 pm 23:55 Clear 26 -3.1 24 -4.6 90 90 WNW 6 9 30.36 1028 10 16.0934 0 0

Powered by AerisWeather